Location: St. Louis
(38.6270°N, 90.1994°W)
Time: 19:48:27
(UTC-06:00)

Courier 1B Rocket - Pass Details

Date: 06 December 2021
Orbit: 920 x 1202 km, 28.2° (Epoch: 21 January)

Event Time Altitude Azimuth Distance (km) Brightness Sun altitude
Enters shadow 21:20:08 - 233° (SW) 3,796 8.4 -53.9°
Rises 21:20:12 0° 233° (SW) 3,773 - -53.9°
Reaches altitude 10° 21:23:24 10° 221° (SW) 2,773 - -54.5°
Maximum altitude 21:28:46 26° 167° (SSE) 1,804 - -55.5°
Drops below altitude 10° 21:33:55 10° 113° (ESE) 2,647 - -56.5°
Sets 21:36:54 0° 101° (E) 3,569 - -57.1°
